Time,TemperatureF,DewpointF,PressureIn,WindDirection,WindDirectionDegrees,WindSpeedMPH,WindSpeedGustMPH,Humidity,HourlyPrecipIn,Conditions,Clouds,dailyrainin,SoftwareType,DateUTC
2015-07-07 01:43:00,72.0,67.0,-100.00,NNE,29,1.0,-999.0,82,-99.99,,,-99.99,,2015-07-07 05:43:00,
2015-07-07 02:23:00,72.0,67.0,-100.00,NNE,20,3.0,-999.0,84,-99.99,,,-99.99,,2015-07-07 06:23:00,
2015-07-07 02:44:00,72.0,67.0,-100.00,NNE,20,4.0,-999.0,84,-99.99,,,-99.99,,2015-07-07 06:44:00,
2015-07-07 03:03:00,71.0,67.0,-100.00,NNE,19,3.0,-999.0,85,-99.99,,,-99.99,,2015-07-07 07:03:00,
2015-07-07 03:44:00,71.0,67.0,-100.00,NNE,25,4.0,-999.0,85,-99.99,,,-99.99,,2015-07-07 07:44:00,
2015-07-07 03:53:00,72.0,67.0,-100.00,NNE,28,4.0,-999.0,85,-99.99,,,-99.99,,2015-07-07 07:53:00,
2015-07-07 04:23:00,72.0,67.0,-100.00,NNE,29,6.0,-999.0,83,-99.99,,,-99.99,,2015-07-07 08:23:00,
2015-07-07 04:43:00,72.0,67.0,-100.00,NNE,28,6.0,-999.0,83,-99.99,,,-99.99,,2015-07-07 08:43:00,
2015-07-07 05:43:00,72.0,67.0,-100.00,NNE,27,5.0,-999.0,84,-99.99,,,-99.99,,2015-07-07 09:43:00,
2015-07-07 05:53:00,72.0,67.0,-100.00,NNE,27,4.0,-999.0,85,-99.99,,,-99.99,,2015-07-07 09:53:00,
2015-07-07 06:33:00,72.0,68.0,-100.00,NNE,29,5.0,-999.0,86,-99.99,,,-99.99,,2015-07-07 10:33:00,
2015-07-07 07:04:00,72.0,68.0,-100.00,NNE,23,4.0,-999.0,86,-99.99,,,-99.99,,2015-07-07 11:04:00,
2015-07-07 07:13:00,72.0,68.0,-100.00,NNE,26,6.0,-999.0,87,-99.99,,,-99.99,,2015-07-07 11:13:00,
2015-07-07 08:23:00,73.0,69.0,-100.00,NE,34,5.0,-999.0,85,-99.99,,,-99.99,,2015-07-07 12:23:00,
2015-07-07 08:33:00,74.0,69.0,-100.00,NNE,31,6.0,-999.0,85,-99.99,,,-99.99,,2015-07-07 12:33:00,
2015-07-07 09:33:00,75.0,69.0,-100.00,NE,53,8.0,-999.0,80,-99.99,,,-99.99,,2015-07-07 13:33:00,
2015-07-07 10:43:00,77.0,69.0,-100.00,NE,53,7.0,-999.0,76,-99.99,,,-99.99,,2015-07-07 14:43:00,
2015-07-07 11:43:00,77.0,69.0,-100.00,NE,39,8.0,-999.0,76,-99.99,,,-99.99,,2015-07-07 15:43:00,
2015-07-07 12:13:00,78.0,69.0,-100.00,NE,46,6.0,-999.0,73,-99.99,,,-99.99,,2015-07-07 16:13:00,
2015-07-07 12:43:00,79.0,69.0,-100.00,NE,42,7.0,-999.0,71,-99.99,,,-99.99,,2015-07-07 16:43:00,
2015-07-07 13:44:00,78.0,69.0,-100.00,ENE,60,9.0,-999.0,73,-99.99,,,-99.99,,2015-07-07 17:44:00,
2015-07-07 14:54:00,78.0,68.0,-100.00,NE,43,10.0,-999.0,71,-99.99,,,-99.99,,2015-07-07 18:54:00,
2015-07-07 15:44:00,78.0,67.0,-100.00,ENE,58,8.0,-999.0,70,-99.99,,,-99.99,,2015-07-07 19:44:00,
2015-07-07 16:03:00,77.0,68.0,-100.00,ENE,57,12.0,-999.0,73,-99.99,,,-99.99,,2015-07-07 20:03:00,
2015-07-07 16:23:00,76.0,69.0,-100.00,ENE,62,8.0,-999.0,76,-99.99,,,-99.99,,2015-07-07 20:23:00,
2015-07-07 16:44:00,76.0,69.0,-100.00,ENE,60,9.0,-999.0,78,-99.99,,,-99.99,,2015-07-07 20:44:00,